Weather History for Fort Leonard Wood, MO

Change the Weather History Date:

Tuesday, November 27, 2012

  Actual Average Record
Temperature  
Mean Temperature 29 °F -  
Max Temperature 42 °F 51 °F 75 °F (1998)
Min Temperature 16 °F 36 °F 15 °F (1996)
Degree Days  
Heating Degree Days 36    
Moisture  
Dew Point 19 °F    
Average Humidity 67    
Maximum Humidity 95    
Minimum Humidity 34    
Precipitation  
Precipitation 0.00 in - - ()
Sea Level Pressure  
Sea Level Pressure 30.39 in    
Wind  
Wind Speed 4 mph (West)    
Max Wind Speed 8 mph    
Max Gust Speed -    
Visibility 10 miles    
Events      
Averages and records for this station are not official NWS values.
T = Trace of Precipitation, MM = Missing Value Source: NWS Daily Summary

Daily Weather History Graph

Daily Weather History Graph

Search for Another Location

Airport:

Trip Planner

Search our weather history database for the weather conditions in past years. The results will help you decide how hot, cold, wet, or windy it might be!

Date:

Astronomy

Nov. 27, 2012 Rise Set
Actual Time 7:01 AM CST 4:50 PM CST
Civil Twilight 6:32 AM CST 5:19 PM CST
Nautical Twilight 6:00 AM CST 5:51 PM CST
Astronomical Twilight 5:29 AM CST 6:23 PM CST
Moon 4:22 PM CST (11/27) 6:07 AM CST (11/27)
Length of Visible Light 10h 46m
Length of Day
9h 49m
Waxing Gibbous, 99% of the Moon is Illuminated
Nov 27
Waxing Gibbous
Nov 28
Full
Dec 6
Last Quarter
Dec 13
New
Dec 19
First Quarter

Hourly Weather History & Observations

Time (CST) Temp. Windchill Dew Point Humidity Pressure Visibility Wind Dir Wind Speed Gust Speed Precip Events Conditions
12:55 AM 26.2 °F 17.8 °F 21.6 °F 82% 30.39 in 10.0 mi North 8.1 mph - N/A   Clear
1:55 AM 24.4 °F 16.5 °F 20.8 °F 86% 30.38 in 10.0 mi NNW 6.9 mph - N/A   Clear
2:55 AM 23.0 °F 14.7 °F 20.7 °F 91% 30.38 in 10.0 mi North 6.9 mph - N/A   Clear
3:55 AM 22.5 °F 15.1 °F 19.9 °F 90% 30.38 in 10.0 mi North 5.8 mph - N/A   Clear
4:55 AM 20.8 °F - 18.7 °F 91% 30.40 in 10.0 mi Calm Calm - N/A   Clear
5:55 AM 19.6 °F - 18.0 °F 93% 30.41 in 10.0 mi Calm Calm - N/A   Clear
6:55 AM 16.2 °F - 14.9 °F 95% 30.43 in 10.0 mi Calm Calm - N/A   Clear
7:55 AM 19.8 °F - 18.3 °F 94% 30.44 in 10.0 mi Calm Calm - N/A   Clear
8:55 AM 24.3 °F 19.9 °F 18.5 °F 79% 30.46 in 10.0 mi North 3.5 mph - N/A   Clear
9:55 AM 28.0 °F 22.8 °F 19.2 °F 70% 30.48 in 10.0 mi NNE 4.6 mph - N/A   Clear
10:55 AM 31.1 °F - 18.3 °F 59% 30.47 in 10.0 mi Calm Calm - N/A   Clear
11:55 AM 34.5 °F 31.6 °F 17.2 °F 49% 30.43 in 10.0 mi Variable 3.5 mph - N/A   Clear
12:55 PM 37.2 °F - 18.0 °F 46% 30.39 in 10.0 mi Calm Calm - N/A   Clear
1:55 PM 40.5 °F 38.4 °F 16.0 °F 37% 30.36 in 10.0 mi South 3.5 mph - N/A   Clear
2:55 PM 41.2 °F - 14.5 °F 34% 30.35 in 10.0 mi Calm Calm - N/A   Clear
3:55 PM 42.1 °F 40.2 °F 16.2 °F 35% 30.35 in 10.0 mi Variable 3.5 mph - N/A   Clear
4:55 PM 39.4 °F - 17.6 °F 41% 30.34 in 10.0 mi Calm Calm - N/A   Clear
5:55 PM 36.3 °F - 18.0 °F 47% 30.34 in 10.0 mi Calm Calm - N/A   Clear
6:55 PM 32.4 °F 27.9 °F 20.8 °F 63% 30.34 in 10.0 mi South 4.6 mph - N/A   Clear
7:55 PM 33.3 °F 30.2 °F 19.4 °F 57% 30.34 in 10.0 mi South 3.5 mph - N/A   Clear
8:55 PM 28.9 °F 23.9 °F 19.4 °F 68% 30.34 in 10.0 mi SW 4.6 mph - N/A   Clear
9:55 PM 29.8 °F 26.3 °F 19.4 °F 65% 30.35 in 10.0 mi SW 3.5 mph - N/A   Clear
10:55 PM 28.6 °F 24.8 °F 20.1 °F 71% 30.36 in 10.0 mi SSW 3.5 mph - N/A   Clear
11:55 PM 28.6 °F 22.4 °F 18.9 °F 67% 30.36 in 10.0 mi SW 5.8 mph - N/A   Clear